When you browse on this site, cookies collect data to enhance your experience and personalize the content and advertising you see.
Visit our Privacy Policy to learn more. By continuing to use the site, you agree to this use of cookies and data.
  • In Deutschland
  • Länderverzeichnis
  • Für 7 Tage
  • Wassertemperatur
  • Wetterkarte
  • Widgets
  • user-avatar
    Anmelden

    Stündliche Wetter Kazincbarcika

    Heute, 25 Februar, Dienstag

    Zeit Temperatur Niederschläge Wind Luftdruck Luftfeuchtigkeit
    00:00 +4°C° 0 mm 2 m/S 744 mmHg 74%
    01:00 +5°C° 0 mm 2 m/S 744 mmHg 74%
    02:00 +4°C° 0 mm 2 m/S 743 mmHg 74%
    03:00 +4°C° 0 mm 2 m/S 742 mmHg 74%
    04:00 +4°C° 0 mm 2 m/S 741 mmHg 74%
    05:00 +4°C° 0 mm 2 m/S 741 mmHg 76%
    06:00 +4°C° 0 mm 2 m/S 741 mmHg 77%
    07:00 +3°C° 0 mm 2 m/S 741 mmHg 79%
    08:00 +5°C° 0 mm 2 m/S 740 mmHg 74%
    09:00 +5°C° 0 mm 3 m/S 740 mmHg 70%
    10:00 +7°C° 0 mm 3 m/S 740 mmHg 65%
    11:00 +8°C° 0 mm 3 m/S 739 mmHg 64%
    12:00 +10°C° 0 mm 3 m/S 739 mmHg 64%
    13:00 +11°C° 0 mm 3 m/S 738 mmHg 63%
    14:00 +11°C° 0 mm 3 m/S 738 mmHg 64%
    15:00 +12°C° 0 mm 2 m/S 737 mmHg 65%
    16:00 +13°C° 0 mm 2 m/S 736 mmHg 66%
    17:00 +12°C° 0 mm 2 m/S 736 mmHg 72%
    18:00 +10°C° 0 mm 2 m/S 736 mmHg 77%
    19:00 +9°C° 0 mm 2 m/S 736 mmHg 83%
    20:00 +8°C° 0 mm 2 m/S 735 mmHg 85%
    21:00 +8°C° 0 mm 2 m/S 735 mmHg 88%
    22:00 +7°C° 0 mm 2 m/S 734 mmHg 90%
    23:00 +7°C° 0 mm 2 m/S 734 mmHg 91%

    Morgen, 26 Februar, Mittwoch

    Zeit Temperatur Niederschläge Wind Luftdruck Luftfeuchtigkeit
    00:00 +7°C° 0 mm 2 m/S 733 mmHg 92%
    01:00 +7°C° 0 mm 1 m/S 733 mmHg 93%
    02:00 +8°C° 0.1 mm 1 m/S 732 mmHg 93%
    03:00 +8°C° 0.1 mm 1 m/S 731 mmHg 93%
    04:00 +8°C° 0.1 mm 1 m/S 731 mmHg 93%
    05:00 +7°C° 1.1 mm 2 m/S 730 mmHg 93%
    06:00 +7°C° 1.1 mm 2 m/S 730 mmHg 93%
    07:00 +7°C° 1.1 mm 3 m/S 730 mmHg 93%
    08:00 +8°C° 0.1 mm 3 m/S 730 mmHg 87%
    09:00 +8°C° 0.1 mm 3 m/S 729 mmHg 81%
    10:00 +8°C° 0.1 mm 4 m/S 729 mmHg 75%
    11:00 +8°C° 0 mm 4 m/S 729 mmHg 70%
    12:00 +8°C° 0 mm 4 m/S 729 mmHg 66%
    13:00 +8°C° 0 mm 4 m/S 729 mmHg 61%
    14:00 +8°C° 0 mm 4 m/S 729 mmHg 61%
    15:00 +8°C° 0 mm 4 m/S 729 mmHg 60%
    16:00 +8°C° 0 mm 4 m/S 729 mmHg 60%
    17:00 +8°C° 0 mm 3 m/S 729 mmHg 63%
    18:00 +7°C° 0 mm 3 m/S 730 mmHg 65%
    19:00 +5°C° 0 mm 3 m/S 730 mmHg 67%
    20:00 +4°C° 0 mm 3 m/S 730 mmHg 70%
    21:00 +5°C° 0 mm 2 m/S 731 mmHg 72%
    22:00 +4°C° 0 mm 2 m/S 731 mmHg 75%
    23:00 +4°C° 0 mm 2 m/S 731 mmHg 76%

    übermorgen, 27 Februar, Donnerstag

    Zeit Temperatur Niederschläge Wind Luftdruck Luftfeuchtigkeit
    00:00 +3°C° 0 mm 2 m/S 732 mmHg 76%
    01:00 +3°C° 0 mm 2 m/S 732 mmHg 77%
    02:00 +4°C° 0 mm 1 m/S 732 mmHg 78%
    03:00 +3°C° 0 mm 1 m/S 732 mmHg 79%
    04:00 +3°C° 0 mm 1 m/S 733 mmHg 80%
    05:00 +3°C° 0 mm 1 m/S 733 mmHg 79%
    06:00 +2°C° 0 mm 2 m/S 734 mmHg 78%
    07:00 +1°C° 0 mm 2 m/S 734 mmHg 76%
    08:00 +2°C° 0 mm 3 m/S 735 mmHg 70%
    09:00 +3°C° 0 mm 3 m/S 735 mmHg 63%
    10:00 +4°C° 0 mm 4 m/S 736 mmHg 57%
    11:00 +5°C° 0 mm 4 m/S 736 mmHg 53%
    12:00 +6°C° 0 mm 4 m/S 736 mmHg 49%
    13:00 +7°C° 0 mm 4 m/S 736 mmHg 45%
    14:00 +6°C° 0 mm 4 m/S 736 mmHg 47%
    15:00 +6°C° 0 mm 5 m/S 736 mmHg 49%
    16:00 +5°C° 0 mm 5 m/S 736 mmHg 51%
    17:00 +4°C° 0 mm 4 m/S 736 mmHg 55%
    18:00 +3°C° 0 mm 4 m/S 736 mmHg 59%
    19:00 +1°C° 0 mm 4 m/S 736 mmHg 63%
    20:00 +2°C° 0 mm 3 m/S 736 mmHg 65%
    21:00 +3°C° 0 mm 2 m/S 735 mmHg 68%
    22:00 +2°C° 0 mm 2 m/S 735 mmHg 71%
    23:00 +1°C° 0 mm 3 m/S 734 mmHg 71%

    28 Februar, Freitag

    Zeit Temperatur Niederschläge Wind Luftdruck Luftfeuchtigkeit
    00:00 0°C° 0 mm 4 m/S 733 mmHg 71%
    01:00 +1°C° 0 mm 5 m/S 733 mmHg 71%
    02:00 0°C° 0.9 mm 5 m/S 732 mmHg 77%
    03:00 0°C° 0.9 mm 5 m/S 731 mmHg 84%
    04:00 0°C° 0.9 mm 5 m/S 730 mmHg 90%
    05:00 0°C° 0.1 mm 4 m/S 730 mmHg 89%
    06:00 0°C° 0.1 mm 4 m/S 730 mmHg 87%
    07:00 0°C° 0.1 mm 4 m/S 731 mmHg 85%
    08:00 +1°C° 0 mm 4 m/S 731 mmHg 78%
    09:00 +3°C° 0 mm 4 m/S 732 mmHg 70%
    10:00 +3°C° 0 mm 5 m/S 733 mmHg 63%
    11:00 +5°C° 0.1 mm 5 m/S 734 mmHg 58%
    12:00 +5°C° 0.1 mm 6 m/S 736 mmHg 52%
    13:00 +5°C° 0.1 mm 6 m/S 737 mmHg 47%
    14:00 +5°C° 0 mm 6 m/S 738 mmHg 50%
    15:00 +5°C° 0 mm 5 m/S 738 mmHg 52%
    16:00 +5°C° 0 mm 5 m/S 739 mmHg 55%
    17:00 +3°C° 0 mm 5 m/S 740 mmHg 58%
    18:00 +3°C° 0 mm 4 m/S 741 mmHg 62%
    19:00 +1°C° 0 mm 4 m/S 742 mmHg 66%
    20:00 0°C° 0 mm 4 m/S 742 mmHg 68%
    21:00 +1°C° 0 mm 3 m/S 743 mmHg 70%
    22:00 0°C° 0 mm 3 m/S 743 mmHg 72%
    23:00 0°C° 0 mm 3 m/S 743 mmHg 74%

    29 Februar, Samstag

    Zeit Temperatur Niederschläge Wind Luftdruck Luftfeuchtigkeit
    00:00 0°C° 0 mm 3 m/S 744 mmHg 76%
    01:00 0°C° 0 mm 3 m/S 744 mmHg 78%
    02:00 -1°C° 0 mm 2 m/S 744 mmHg 80%
    03:00 -1°C° 0 mm 2 m/S 743 mmHg 81%
    04:00 -1°C° 0 mm 2 m/S 743 mmHg 82%
    05:00 -1°C° 0 mm 2 m/S 743 mmHg 81%
    06:00 +1°C° 0 mm 1 m/S 743 mmHg 80%
    07:00 +1°C° 0 mm 1 m/S 743 mmHg 79%
    08:00 +2°C° 0 mm 2 m/S 743 mmHg 71%
    09:00 +2°C° 0 mm 3 m/S 743 mmHg 62%
    10:00 +4°C° 0 mm 3 m/S 743 mmHg 54%
    11:00 +5°C° 0 mm 4 m/S 742 mmHg 52%
    12:00 +5°C° 0 mm 4 m/S 742 mmHg 50%
    13:00 +6°C° 0 mm 5 m/S 741 mmHg 48%
    14:00 +6°C° 0 mm 4 m/S 741 mmHg 49%
    15:00 +6°C° 0 mm 4 m/S 740 mmHg 50%
    16:00 +7°C° 0 mm 3 m/S 740 mmHg 51%
    17:00 +5°C° 0 mm 3 m/S 739 mmHg 56%
    18:00 +4°C° 0 mm 3 m/S 739 mmHg 60%
    19:00 +4°C° 0 mm 2 m/S 738 mmHg 65%
    20:00 +4°C° 0 mm 2 m/S 738 mmHg 66%
    21:00 +5°C° 0 mm 2 m/S 738 mmHg 66%
    22:00 +5°C° 0 mm 2 m/S 738 mmHg 67%
    23:00 +5°C° 0 mm 2 m/S 738 mmHg 69%

    1 März, Sonntag

    Zeit Temperatur Niederschläge Wind Luftdruck Luftfeuchtigkeit
    00:00 +5°C° 0 mm 2 m/S 738 mmHg 71%
    01:00 +5°C° 0 mm 2 m/S 737 mmHg 74%
    02:00 +5°C° 0 mm 1 m/S 737 mmHg 75%
    03:00 +5°C° 0 mm 1 m/S 737 mmHg 77%
    04:00 +5°C° 0 mm 1 m/S 737 mmHg 79%
    05:00 +5°C° 0.5 mm 1 m/S 737 mmHg 83%
    06:00 +5°C° 0.5 mm 1 m/S 737 mmHg 87%
    07:00 +5°C° 0.5 mm 1 m/S 737 mmHg 92%
    08:00 +6°C° 0 mm 1 m/S 738 mmHg 88%
    09:00 +6°C° 0 mm 1 m/S 738 mmHg 85%
    10:00 +7°C° 0 mm 1 m/S 738 mmHg 81%
    11:00 +8°C° 0 mm 1 m/S 738 mmHg 77%
    12:00 +8°C° 0 mm 1 m/S 738 mmHg 72%
    13:00 +9°C° 0 mm 1 m/S 738 mmHg 68%
    14:00 +9°C° 0 mm 1 m/S 738 mmHg 66%
    15:00 +8°C° 0 mm 2 m/S 738 mmHg 64%
    16:00 +8°C° 0 mm 2 m/S 738 mmHg 62%
    17:00 +7°C° 0 mm 2 m/S 738 mmHg 66%
    18:00 +6°C° 0 mm 2 m/S 739 mmHg 70%
    19:00 +5°C° 0 mm 2 m/S 739 mmHg 74%
    20:00 +5°C° 0 mm 2 m/S 739 mmHg 75%
    21:00 +4°C° 0 mm 2 m/S 740 mmHg 77%
    22:00 +4°C° 0 mm 2 m/S 740 mmHg 78%
    23:00 +3°C° 0 mm 2 m/S 740 mmHg 78%
    Mehr zeigen